BAW273 KJFK-EGLL

Flight info

Callsign BAW273
Flight time N/A
Altitude 37000
Route GREKI DCT JUDDS DCT MARTN DCT TOPPS N635A RIKAL/M085F380 NATW BEXET/N0484F390 DCT ENJEX DCT AVZAC DCT INFEC DCT JETZI DCT AMFUL DCT ORZEB/N0463F230 P2 SIRIC
Aircraft A35K/H-SDE2E3GHIJ3J4J5LM1ORWXY/LB1D1

Departure

Time 2026-05-06 23:53
Airport John F. Kennedy International Airport (KJFK)

Arrival

Time N/A
Airport London Heathrow Airport (EGLL)
Time Latitude Longitude Altitude Speed Heading
2026-05-06 23:25 40.65005 -73.79480 30 ft 0 kts 150°
2026-05-06 23:38 40.65010 -73.79483 29 ft 2 kts 150°
2026-05-06 23:39 40.65026 -73.79494 28 ft 3 kts 178°
2026-05-06 23:39 40.65040 -73.79489 28 ft 2 kts 234°
2026-05-06 23:39 40.65046 -73.79477 27 ft 2 kts 240°
2026-05-06 23:39 40.65055 -73.79454 29 ft 3 kts 240°
2026-05-06 23:40 40.65060 -73.79443 27 ft 0 kts 240°
2026-05-06 23:44 40.65041 -73.79488 27 ft 10 kts 240°
2026-05-06 23:44 40.65044 -73.79554 28 ft 8 kts 304°
2026-05-06 23:44 40.65071 -73.79570 28 ft 7 kts
2026-05-06 23:45 40.65104 -73.79532 29 ft 8 kts 54°
2026-05-06 23:45 40.65159 -73.79419 29 ft 17 kts 61°
2026-05-06 23:45 40.65205 -73.79268 29 ft 19 kts 85°
2026-05-06 23:45 40.65178 -73.79098 29 ft 20 kts 108°
2026-05-06 23:46 40.65137 -73.78923 29 ft 21 kts 100°
2026-05-06 23:46 40.65156 -73.78733 29 ft 22 kts 66°
2026-05-06 23:46 40.65227 -73.78563 30 ft 22 kts 61°
2026-05-06 23:46 40.65254 -73.78368 30 ft 21 kts 110°
2026-05-06 23:47 40.65185 -73.78203 30 ft 22 kts 120°
2026-05-06 23:47 40.65104 -73.78022 29 ft 24 kts 121°
2026-05-06 23:47 40.65027 -73.77852 31 ft 22 kts 120°
2026-05-06 23:47 40.64947 -73.77674 26 ft 18 kts 120°
2026-05-06 23:48 40.64904 -73.77570 32 ft 8 kts 102°
2026-05-06 23:48 40.64930 -73.77520 29 ft 11 kts 46°
2026-05-06 23:48 40.65002 -73.77447 27 ft 13 kts 27°
2026-05-06 23:48 40.65090 -73.77400 32 ft 13 kts 27°
2026-05-06 23:49 40.65122 -73.77355 29 ft 6 kts 75°
2026-05-06 23:49 40.65110 -73.77280 28 ft 11 kts 113°
2026-05-06 23:49 40.65061 -73.77164 26 ft 16 kts 121°
2026-05-06 23:49 40.65001 -73.77033 27 ft 17 kts 121°
2026-05-06 23:50 40.64935 -73.76892 27 ft 19 kts 121°
2026-05-06 23:50 40.64896 -73.76685 27 ft 12 kts 42°
2026-05-06 23:50 40.64972 -73.76624 27 ft 14 kts 30°
2026-05-06 23:51 40.65055 -73.76560 27 ft 9 kts 31°
2026-05-06 23:51 40.65083 -73.76504 28 ft 7 kts 104°
2026-05-06 23:51 40.65075 -73.76438 28 ft 8 kts 99°
2026-05-06 23:51 40.65049 -73.76381 29 ft 7 kts 144°
2026-05-06 23:52 40.65000 -73.76383 28 ft 8 kts 199°
2026-05-06 23:52 40.64940 -73.76422 28 ft 17 kts 210°
2026-05-06 23:52 40.64645 -73.76653 31 ft 83 kts 211°
2026-05-06 23:52 40.63973 -73.77174 28 ft 140 kts 210°
2026-05-06 23:53 40.63020 -73.77890 353 ft 162 kts 207°
2026-05-06 23:53 40.62077 -73.78604 1106 ft 153 kts 214°
2026-05-06 23:53 40.61142 -73.79382 1574 ft 173 kts 216°
2026-05-06 23:53 40.60058 -73.80284 1969 ft 193 kts 216°
2026-05-06 23:54 40.58846 -73.81276 2251 ft 218 kts 216°
2026-05-06 23:54 40.57501 -73.82359 2747 ft 232 kts 216°
2026-05-06 23:54 40.56097 -73.83478 3382 ft 240 kts 216°
2026-05-06 23:54 40.54652 -73.84626 4136 ft 244 kts 216°
2026-05-06 23:55 40.53196 -73.85783 4715 ft 246 kts 216°
2026-05-06 23:55 40.51729 -73.86948 4960 ft 247 kts 216°
2026-05-06 23:55 40.50251 -73.88123 5000 ft 249 kts 216°
2026-05-06 23:55 40.48644 -73.89024 5025 ft 259 kts 195°
2026-05-06 23:56 40.46809 -73.88838 5447 ft 276 kts 167°
2026-05-06 23:56 40.45146 -73.87475 6241 ft 291 kts 141°
2026-05-06 23:56 40.44022 -73.85248 6925 ft 306 kts 115°
2026-05-06 23:56 40.43647 -73.82469 7636 ft 317 kts 89°
2026-05-06 23:57 40.44133 -73.79635 8312 ft 323 kts 64°
2026-05-06 23:57 40.45320 -73.77126 9029 ft 326 kts 49°
2026-05-06 23:57 40.46719 -73.74756 9756 ft 331 kts 47°
2026-05-06 23:57 40.48172 -73.72361 10338 ft 342 kts 47°
2026-05-06 23:58 40.49706 -73.69855 10639 ft 362 kts 47°
2026-05-06 23:58 40.51337 -73.67210 10903 ft 383 kts 47°
2026-05-06 23:58 40.53076 -73.64411 10981 ft 408 kts 47°
2026-05-06 23:58 40.54924 -73.61468 10991 ft 423 kts 47°
2026-05-06 23:59 40.56813 -73.58473 10999 ft 426 kts 47°
2026-05-06 23:59 40.58705 -73.55471 11001 ft 426 kts 47°
2026-05-06 23:59 40.60598 -73.52468 11001 ft 427 kts 47°
2026-05-06 23:59 40.62518 -73.49469 11146 ft 431 kts 44°
2026-05-07 00:00 40.64726 -73.46910 11785 ft 426 kts 29°
2026-05-07 00:00 40.67341 -73.45211 12456 ft 417 kts 12°
2026-05-07 00:00 40.70141 -73.44227 13047 ft 415 kts
2026-05-07 00:00 40.72994 -73.43609 13641 ft 416 kts 360°
2026-05-07 00:01 40.75876 -73.43174 14195 ft 418 kts 358°
2026-05-07 00:01 40.78771 -73.42798 14812 ft 419 kts 358°
2026-05-07 00:01 40.81684 -73.42418 15354 ft 423 kts 359°
2026-05-07 00:01 40.84628 -73.42004 15926 ft 427 kts 359°
2026-05-07 00:02 40.87590 -73.41552 16530 ft 430 kts 360°
2026-05-07 00:02 40.90516 -73.41082 16921 ft 431 kts
2026-05-07 00:02 40.93509 -73.40587 17411 ft 435 kts
2026-05-07 00:02 40.96517 -73.40082 18068 ft 437 kts
2026-05-07 00:03 40.99543 -73.39572 18631 ft 440 kts 360°
2026-05-07 00:03 41.02597 -73.39061 19096 ft 444 kts 359°
2026-05-07 00:03 41.05676 -73.38544 19641 ft 447 kts 359°
2026-05-07 00:03 41.08765 -73.38026 20217 ft 448 kts 358°
2026-05-07 00:04 41.11866 -73.37506 20789 ft 450 kts 358°
2026-05-07 00:04 41.14975 -73.36985 21365 ft 452 kts 357°
2026-05-07 00:04 41.18109 -73.36462 21919 ft 455 kts 356°
2026-05-07 00:04 41.21221 -73.35943 22504 ft 459 kts 356°
2026-05-07 00:05 41.24448 -73.35404 23050 ft 462 kts 356°
2026-05-07 00:05 41.27605 -73.34874 23590 ft 465 kts 356°
2026-05-07 00:05 41.30825 -73.34333 24043 ft 469 kts 356°
2026-05-07 00:05 41.34066 -73.33789 24512 ft 472 kts 355°
2026-05-07 00:06 41.37338 -73.33244 24963 ft 476 kts 355°
2026-05-07 00:06 41.40629 -73.32690 25398 ft 481 kts 355°
2026-05-07 00:06 41.43982 -73.31834 25752 ft 499 kts
2026-05-07 00:06 41.47307 -73.30246 26220 ft 517 kts 15°
2026-05-07 00:07 41.50475 -73.27805 26683 ft 534 kts 26°
2026-05-07 00:07 41.53388 -73.24744 27106 ft 547 kts 33°
2026-05-07 00:07 41.56188 -73.21245 27487 ft 554 kts 37°
2026-05-07 00:07 41.59088 -73.17896 27873 ft 548 kts 28°
2026-05-07 00:08 41.62276 -73.15201 28262 ft 537 kts 17°
2026-05-07 00:08 41.65678 -73.13365 28624 ft 522 kts
2026-05-07 00:08 41.69183 -73.12443 29009 ft 505 kts 353°
2026-05-07 00:08 41.72641 -73.12389 29366 ft 490 kts 343°
2026-05-07 00:09 41.76032 -73.12798 29701 ft 489 kts 341°
2026-05-07 00:09 41.79364 -73.13342 29982 ft 490 kts 340°
2026-05-07 00:09 41.86085 -73.14568 29850 ft 487 kts 340°
2026-05-07 00:10 41.92798 -73.15785 29810 ft 488 kts 340°
2026-05-07 00:10 41.99555 -73.16957 29854 ft 489 kts 340°
2026-05-07 00:11 42.02939 -73.17537 30061 ft 491 kts 340°
2026-05-07 00:11 42.06309 -73.18110 30592 ft 486 kts 340°
2026-05-07 00:11 42.09649 -73.18671 31238 ft 481 kts 340°
2026-05-07 00:11 42.12958 -73.19228 31792 ft 477 kts 340°
2026-05-07 00:12 42.16241 -73.19786 32299 ft 474 kts 340°
2026-05-07 00:12 42.19503 -73.20345 32806 ft 472 kts 339°
2026-05-07 00:12 42.22765 -73.20911 33139 ft 472 kts 339°
2026-05-07 00:12 42.25974 -73.21477 33480 ft 471 kts 339°
2026-05-07 00:13 42.29210 -73.22038 33971 ft 468 kts 339°
2026-05-07 00:13 42.32430 -73.22590 34335 ft 466 kts 339°
2026-05-07 00:13 42.35653 -73.23147 34612 ft 467 kts 339°
2026-05-07 00:13 42.38874 -73.23705 34891 ft 467 kts 339°
2026-05-07 00:14 42.42106 -73.24268 35116 ft 470 kts 340°
2026-05-07 00:14 42.45355 -73.24835 35276 ft 472 kts 340°
2026-05-07 00:14 42.48672 -73.25129 35522 ft 485 kts 347°
2026-05-07 00:14 42.52090 -73.24790 35759 ft 501 kts 356°
2026-05-07 00:15 42.55540 -73.23671 35962 ft 519 kts
2026-05-07 00:15 42.58905 -73.21672 36202 ft 539 kts 19°
2026-05-07 00:15 42.62040 -73.18753 36388 ft 556 kts 32°
2026-05-07 00:15 42.64784 -73.14959 36576 ft 570 kts 45°
2026-05-07 00:16 42.67215 -73.10772 36715 ft 573 kts 47°
2026-05-07 00:16 42.69597 -73.06403 36786 ft 578 kts 48°
2026-05-07 00:16 42.74305 -72.97500 36783 ft 580 kts 49°
2026-05-07 00:17 42.79023 -72.88615 36780 ft 578 kts 48°
2026-05-07 00:17 42.83770 -72.79773 36780 ft 577 kts 48°
2026-05-07 00:18 42.88518 -72.70955 36762 ft 577 kts 48°
2026-05-07 00:18 42.93232 -72.62179 36764 ft 576 kts 49°
2026-05-07 00:19 42.97955 -72.53346 36768 ft 576 kts 49°
2026-05-07 00:19 43.02676 -72.44488 36769 ft 576 kts 49°
2026-05-07 00:20 43.07387 -72.35623 36771 ft 576 kts 49°
2026-05-07 00:20 43.12081 -72.26762 36768 ft 575 kts 49°
2026-05-07 00:21 43.16767 -72.17892 36768 ft 574 kts 49°
2026-05-07 00:21 43.21408 -72.09080 36775 ft 574 kts 50°
2026-05-07 00:22 43.26071 -72.00197 36771 ft 573 kts 50°
2026-05-07 00:22 43.30718 -71.91323 36764 ft 573 kts 50°
2026-05-07 00:23 43.35357 -71.82437 36764 ft 572 kts 50°
2026-05-07 00:23 43.39984 -71.73545 36762 ft 572 kts 50°
2026-05-07 00:24 43.44578 -71.64692 36754 ft 572 kts 50°
2026-05-07 00:24 43.49196 -71.55764 36777 ft 572 kts 50°
2026-05-07 00:25 43.53796 -71.46844 36749 ft 570 kts 51°
2026-05-07 00:25 43.58378 -71.37931 36749 ft 569 kts 51°
2026-05-07 00:26 43.62948 -71.29015 36755 ft 569 kts 51°
2026-05-07 00:26 43.67479 -71.20149 36754 ft 567 kts 51°
2026-05-07 00:27 43.72017 -71.11239 36746 ft 566 kts 51°
2026-05-07 00:27 43.76543 -71.02330 36741 ft 566 kts 51°
2026-05-07 00:28 43.81034 -70.93463 36737 ft 565 kts 51°
2026-05-07 00:28 43.85539 -70.84539 36736 ft 565 kts 52°
2026-05-07 00:29 43.90030 -70.75617 36735 ft 565 kts 52°
2026-05-07 00:30 43.98947 -70.57821 36756 ft 561 kts 52°
2026-05-07 00:30 44.03391 -70.48910 36765 ft 561 kts 52°
2026-05-07 00:31 44.07827 -70.39988 36766 ft 561 kts 53°
2026-05-07 00:31 44.12246 -70.31071 36758 ft 559 kts 53°
2026-05-07 00:32 44.16652 -70.22155 36760 ft 558 kts 53°
2026-05-07 00:32 44.21011 -70.13308 36765 ft 558 kts 53°
2026-05-07 00:33 44.25398 -70.04379 36757 ft 557 kts 53°
2026-05-07 00:33 44.29765 -69.95458 36771 ft 557 kts 53°
2026-05-07 00:34 44.34123 -69.86529 36769 ft 556 kts 53°
2026-05-07 00:34 44.38444 -69.77652 36765 ft 555 kts 54°
2026-05-07 00:35 44.42770 -69.68734 36743 ft 554 kts 54°
2026-05-07 00:35 44.47095 -69.59793 36739 ft 554 kts 54°
2026-05-07 00:36 44.51407 -69.50849 36738 ft 554 kts 54°
2026-05-07 00:36 44.55703 -69.41910 36746 ft 552 kts 54°
2026-05-07 00:37 44.59957 -69.33032 36774 ft 552 kts 54°
2026-05-07 00:37 44.64238 -69.24071 36775 ft 552 kts 54°
2026-05-07 00:38 44.68504 -69.15114 36783 ft 551 kts 55°
2026-05-07 00:38 44.72762 -69.06146 36793 ft 552 kts 55°
2026-05-07 00:39 44.76991 -68.97209 36794 ft 553 kts 55°
2026-05-07 00:39 44.81249 -68.88184 36796 ft 553 kts 55°
2026-05-07 00:40 44.85494 -68.79157 36779 ft 553 kts 56°
2026-05-07 00:40 44.89733 -68.70116 36779 ft 553 kts 56°
2026-05-07 00:41 44.93936 -68.61123 36790 ft 553 kts 56°
2026-05-07 00:41 44.98162 -68.52052 36795 ft 552 kts 56°
2026-05-07 00:42 45.02373 -68.42984 36800 ft 552 kts 56°
2026-05-07 00:42 45.06579 -68.33897 36809 ft 552 kts 56°
2026-05-07 00:43 45.10750 -68.24859 36811 ft 552 kts 57°
2026-05-07 00:43 45.14942 -68.15744 36811 ft 552 kts 57°
2026-05-07 00:44 45.19121 -68.06631 36821 ft 552 kts 57°
2026-05-07 00:44 45.23293 -67.97505 36819 ft 552 kts 57°
2026-05-07 00:45 45.27432 -67.88418 36823 ft 551 kts 57°
2026-05-07 00:45 45.31587 -67.79272 36828 ft 552 kts 57°
2026-05-07 00:46 45.36143 -67.70513 36831 ft 552 kts 49°
2026-05-07 00:46 45.41124 -67.62277 36839 ft 553 kts 49°